Weather History for LGKV - October, 2012

Change the Weather History Date:

Tuesday, October 16, 2012

  Actual Average Record
Temperature  
Mean Temperature 68 °F -  
Max Temperature 77 °F 66 °F 84 °F (2001)
Min Temperature 59 °F 51 °F 39 °F (2011)
Cooling Degree Days 3    
Growing Degree Days 18 (Base 50)    
Moisture  
Dew Point 62 °F    
Average Humidity 78    
Maximum Humidity 94    
Minimum Humidity 65    
Precipitation  
Precipitation 0.00 in - - ()
Sea Level Pressure  
Sea Level Pressure 30.04 in    
Wind  
Wind Speed 3 mph ()    
Max Wind Speed 9 mph    
Max Gust Speed -    
Visibility 6.2 miles    
Events      
Averages and records for this station are not official NWS values.
T = Trace of Precipitation, MM = Missing Value Source: Averaged Metar Reports

Daily Weather History Graph

Daily Weather History Graph

Search for Another Location

Airport or City:

Trip Planner

Search our weather history database for the weather conditions in past years. The results will help you decide how hot, cold, wet, or windy it might be!

Date:

Astronomy

Oct. 16, 2012 Rise Set
Actual Time 7:34 AM EEST 6:39 PM EEST
Civil Twilight 7:06 AM EEST 7:06 PM EEST
Nautical Twilight 6:34 AM EEST 7:38 PM EEST
Astronomical Twilight 6:02 AM EEST 8:10 PM EEST
Moon 8:34 AM EEST (10/16) 7:07 PM EEST (10/16)
Length of Visible Light 12h 00m
Length of Day
11h 05m
New Moon, 1% of the Moon is Illuminated
Oct 16
New Moon
Oct 22
First Quarter
Oct 29
Full
Nov 7
Last Quarter
Nov 14
New

Hourly Weather History & Observations

Time (EEST) Temp. Dew Point Humidity Pressure Visibility Wind Dir Wind Speed Gust Speed Precip Events Conditions
5:20 AM 59.0 °F 55.4 °F 88% 30.01 in 6.2 mi East 4.6 mph - N/A   Partly Cloudy
5:50 AM 59.0 °F 55.4 °F 88% 30.01 in 6.2 mi ENE 4.6 mph - N/A   Partly Cloudy
6:20 AM 59.0 °F 55.4 °F 88% 30.01 in 6.2 mi ENE 4.6 mph - N/A   Partly Cloudy
6:50 AM 59.0 °F 55.4 °F 88% 30.01 in - NNE 4.6 mph - N/A   Clear
7:20 AM 59.0 °F 55.4 °F 88% 30.01 in - NNE 4.6 mph - N/A   Clear
7:50 AM 59.0 °F 55.4 °F 88% 30.01 in - ENE 4.6 mph - N/A   Clear
8:20 AM 60.8 °F 57.2 °F 88% 30.04 in - East 4.6 mph - N/A   Clear
8:50 AM 62.6 °F 59.0 °F 88% 30.04 in - NE 4.6 mph - N/A   Clear
9:20 AM 64.4 °F 59.0 °F 83% 30.04 in 6.2 mi NE 4.6 mph - N/A   Scattered Clouds
9:50 AM 66.2 °F 60.8 °F 83% 30.06 in 6.2 mi Calm Calm - N/A   Scattered Clouds
10:20 AM 68.0 °F 59.0 °F 73% 30.09 in 6.2 mi Calm Calm - N/A   Mostly Cloudy
10:50 AM 71.6 °F 62.6 °F 73% 30.06 in 6.2 mi Calm Calm - N/A   Scattered Clouds
11:20 AM 71.6 °F 62.6 °F 73% 30.06 in 6.2 mi Calm Calm - N/A   Mostly Cloudy
11:50 AM 73.4 °F 62.6 °F 69% 30.06 in 6.2 mi ENE 5.8 mph - N/A   Mostly Cloudy
12:20 PM 73.4 °F 62.6 °F 69% 30.06 in 6.2 mi Calm Calm - N/A   Mostly Cloudy
12:50 PM 75.2 °F 62.6 °F 65% 30.06 in 6.2 mi SSW 9.2 mph - N/A   Scattered Clouds
1:50 PM 75.2 °F 62.6 °F 65% 30.06 in 6.2 mi SW 8.1 mph - N/A   Mostly Cloudy
2:20 PM 75.2 °F 62.6 °F 65% 30.06 in 6.2 mi West 6.9 mph - N/A   Mostly Cloudy
2:50 PM 77.0 °F 64.4 °F 65% 30.04 in 6.2 mi West 5.8 mph - N/A   Mostly Cloudy
3:20 PM 77.0 °F 64.4 °F 65% 30.04 in 6.2 mi West 5.8 mph - N/A   Mostly Cloudy
3:50 PM 77.0 °F 66.2 °F 69% 30.04 in 6.2 mi West 4.6 mph - N/A   Mostly Cloudy
4:20 PM 77.0 °F 66.2 °F 69% 30.04 in 6.2 mi SW 4.6 mph - N/A   Mostly Cloudy
4:50 PM 75.2 °F 64.4 °F 69% 30.01 in 6.2 mi Calm Calm - N/A   Mostly Cloudy
5:20 PM 75.2 °F 64.4 °F 69% 30.01 in 6.2 mi Calm Calm - N/A   Mostly Cloudy
5:50 PM 73.4 °F 64.4 °F 73% 30.01 in 6.2 mi Calm Calm - N/A   Mostly Cloudy
6:20 PM 73.4 °F 64.4 °F 73% 30.01 in 6.2 mi Calm Calm - N/A   Mostly Cloudy
6:50 PM 69.8 °F 64.4 °F 83% 30.04 in 6.2 mi Calm Calm - N/A   Mostly Cloudy
7:20 PM 69.8 °F 64.4 °F 83% 30.04 in 6.2 mi Calm Calm - N/A   Mostly Cloudy
7:50 PM 69.8 °F 66.2 °F 88% 30.04 in 6.2 mi Calm Calm - N/A   Mostly Cloudy
8:20 PM 69.8 °F 66.2 °F 88% 30.04 in 6.2 mi Calm Calm - N/A   Mostly Cloudy
8:50 PM 68.0 °F 66.2 °F 94% 30.06 in 6.2 mi WNW 4.6 mph - N/A   Mostly Cloudy